Location: Bay Ridge
(40.6340°N, 74.0146°W)
Time: 05:29:39
(UTC+00:00)

SL-16 R/B - Pass Details

Date: 15 November 2019
Orbit: 842 x 846 km, 71.0° (Epoch: 12 December)

Event Time Altitude Azimuth Distance (km) Brightness Sun altitude
Exits shadow 10:24:47 - 338° (NNW) 3,195 4.9 -14.8°
Reaches altitude 10° 10:26:41 10° 340° (NNW) 2,476 4.3 -14.5°
Maximum altitude 10:32:22 75° 65° (ENE) 877 2.4 -13.4°
Drops below altitude 10° 10:38:01 10° 152° (SSE) 2,459 5.2 -12.4°
Sets 10:40:27 0° 154° (SSE) 3,390 6.0 -11.9°
